Regional Weather Roundup
Issued by NWS Charleston, WV

Home | Current Version | Previous Version | Text Only | Print | Product List | Glossary Off
Versions: 1 2 3 4 5 6 7 8 9 10 11 12 13 14 15 16 17 18 19 20 21 22 23 24 25 26 27 28 29 30 31 32 33 34 35 36 37 38 39 40 41 42 43 44 45 46 47 48 49 50

000
ASUS41 KRLX 050510
RWRRLX
West Virginia Regional Weather Roundup
National Weather Service Charleston WV
100 AM EDT THU MAY 05 2016

Note: "fair" indicates few or no clouds below 12,000 feet with no
significant weather and/or obstructions to visibility.

WVZ003-050600-
Northern Panhandle of West Virginia

CITY           SKY/WX    TMP DP  RH WIND       PRES   REMARKS
WHEELING       LGT RAIN  49  47  93 CALM      29.68S FOG
$$

WVZ009-050600-
Northwest West Virginia

CITY           SKY/WX    TMP DP  RH WIND       PRES   REMARKS
PARKERSBURG    CLOUDY    49  47  93 CALM      29.72S
$$

WVZ006-050600-
Western West Virginia

CITY           SKY/WX    TMP DP  RH WIND       PRES   REMARKS
HUNTINGTON     CLOUDY    48  44  86 NW3       29.73S
$$

WVZ015-050600-
West Central West Virginia

CITY           SKY/WX    TMP DP  RH WIND       PRES   REMARKS
CHARLESTON     LGT RAIN  49  46  90 NW7       29.70R FOG
$$

WVZ022-031-050600-
North Central West Virginia

CITY           SKY/WX    TMP DP  RH WIND       PRES   REMARKS
CLARKSBURG     LGT RAIN  49  47  93 SE5       29.69F
MORGANTOWN     CLOUDY    50  46  86 CALM      29.70S
$$

WVZ025-035-042-045-050600-
Southern West Virginia

CITY           SKY/WX    TMP DP  RH WIND       PRES   REMARKS
BECKLEY          N/A     45  42  89 W3        29.69S
LOGAN          NOT AVBL
BLUEFIELD      CLOUDY    45  42  89 W3        29.69F
LEWISBURG      CLOUDY    47  42  81 CALM      29.68F
$$

WVZ047-050600-
Northern Mountains of West Virginia

CITY           SKY/WX    TMP DP  RH WIND       PRES   REMARKS
ELKINS         CLOUDY    48  43  82 CALM      29.69F
$$

WVZ052-050600-
Eastern Panhandle of West Virginia

CITY           SKY/WX    TMP DP  RH WIND       PRES   REMARKS
MARTINSBURG    CLOUDY    53  51  93 E6        29.68S
PETERSBURG     CLOUDY    53  48  86 W3        29.69R
$$



USA.gov is the U.S. government's official web portal to all federal, state and local government web resources and services.